Location: Famechon
(49.7599°N, 2.0615°E)
Time: 10:34:36
(UTC+00:00)

Cosmos 2360 Rocket - Pass Details

Date: 03 February 2023
Orbit: 832 x 846 km, 71.0° (Epoch: 24 March)

Event Time Altitude Azimuth Distance (km) Brightness Sun altitude
Rises 19:47:17 0° 231° (SW) 3,380 5.9 -28.8°
Reaches altitude 10° 19:49:51 10° 239° (WSW) 2,452 5.2 -29.2°
Maximum altitude 19:55:09 41° 309° (NW) 1,205 3.3 -30.1°
Enters shadow 19:57:44 26° 0° (N) 1,595 3.7 -30.5°
